Change the Weather History Date:

Tuesday, March 6, 2012

  Actual Average Record
Temperature  
Mean Temperature 36 °F 37 °F  
Max Temperature 59 °F 48 °F 77 °F (1946)
Min Temperature 12 °F 25 °F -10 °F (2015)
Degree Days  
Heating Degree Days 29 28  
Month to date heating degree days 168 174  
Since 1 July heating degree days 3907 4495  
Cooling Degree Days 0 0  
Month to date cooling degree days 0 0  
Year to date cooling degree days 0 0  
Moisture  
Dew Point 17 °F    
Average Humidity 58    
Maximum Humidity 92    
Minimum Humidity 24    
Precipitation  
Precipitation 0.00 in 0.12 in 1.92 in (1967)
Month to date precipitation 1.09 0.71  
Year to date precipitation 6.50 7.04  
Snow  
Snow 0.00 in - - ()
Month to date snowfall 2.1  
Since 1 September snowfall 30.4  
Snow Depth 2.00 in    
Sea Level Pressure  
Sea Level Pressure 30.53 in    
Wind  
Wind Speed 4 mph (South)    
Max Wind Speed 12 mph    
Max Gust Speed 16 mph    
Visibility 10 miles    
Events      
T = Trace of Precipitation, MM = Missing Value Source: NWS Daily Summary

Daily Weather History Graph

Daily Weather History Graph

Search for Another Location

Airport or City:

Trip Planner

Search our weather history database for the weather conditions in past years. The results will help you decide how hot, cold, wet, or windy it might be!

Date:

Astronomy

Mar. 06, 2012 Rise Set
Actual Time 6:43 AM EST 6:17 PM EST
Civil Twilight 6:17 AM EST 6:44 PM EST
Nautical Twilight 5:46 AM EST 7:15 PM EST
Astronomical Twilight 5:15 AM EST 7:46 PM EST
Moon 4:43 PM EST (3/6) 5:17 AM EST (3/6)
Length of Visible Light 12h 27m
Length of Day
11h 34m
Waxing Gibbous, 96% of the Moon is Illuminated
Mar 6
Waxing Gibbous
Mar 8
Full
Mar 14
Last Quarter
Mar 22
New
Mar 30
First Quarter

Hourly Weather History & Observations

Time (EST) Temp. Windchill Dew Point Humidity Pressure Visibility Wind Dir Wind Speed Gust Speed Precip Events Conditions
12:51 AM 16.0 °F - 12.9 °F 88% 30.52 in 10.0 mi Calm Calm - N/A   Clear
1:51 AM 15.1 °F - 12.0 °F 88% 30.54 in 10.0 mi Calm Calm - N/A   Clear
2:51 AM 14.0 °F - 10.9 °F 88% 30.55 in 10.0 mi Calm Calm - N/A   Clear
3:51 AM 14.0 °F - 10.4 °F 86% 30.46 in 10.0 mi Calm Calm - N/A   Clear
4:51 AM 12.9 °F - 10.0 °F 88% 30.59 in 10.0 mi Calm Calm - N/A   Clear
5:51 AM 14.0 °F - 10.0 °F 84% 30.62 in 10.0 mi Calm Calm - N/A   Clear
6:51 AM 15.8 °F - 10.4 °F 79% 30.52 in 10.0 mi Calm Calm - N/A   Clear
7:51 AM 17.1 °F - 14.0 °F 88% 30.64 in 10.0 mi Calm Calm - N/A   Clear
8:51 AM 24.8 °F - 19.4 °F 80% 30.55 in 10.0 mi Calm Calm - N/A   Partly Cloudy
9:51 AM 28.0 °F 24.2 °F 16.0 °F 61% 30.62 in 10.0 mi ESE 3.5 mph - N/A   Overcast
10:51 AM 32.0 °F 28.7 °F 18.0 °F 56% 30.60 in 10.0 mi West 3.5 mph - N/A   Mostly Cloudy
11:51 AM 37.0 °F - 21.0 °F 52% 30.58 in 10.0 mi Calm Calm - N/A   Mostly Cloudy
12:51 PM 44.1 °F - 18.0 °F 35% 30.54 in 10.0 mi Calm Calm - N/A   Overcast
1:51 PM 48.9 °F - 19.0 °F 31% 30.49 in 10.0 mi Variable 4.6 mph - N/A   Clear
2:51 PM 55.0 °F - 19.9 °F 25% 30.46 in 10.0 mi SSE 3.5 mph - N/A   Clear
3:51 PM 57.9 °F - 21.0 °F 24% 30.45 in 10.0 mi SSW 5.8 mph - N/A   Clear
4:51 PM 57.9 °F - 21.9 °F 25% 30.45 in 10.0 mi SSW 8.1 mph - N/A   Clear
5:51 PM 54.0 °F - 19.0 °F 25% 30.46 in 10.0 mi South 6.9 mph - N/A   Clear
6:51 PM 50.0 °F - 19.0 °F 29% 30.48 in 10.0 mi SSE 8.1 mph - N/A   Clear
7:51 PM 46.0 °F 42.5 °F 21.9 °F 39% 30.49 in 10.0 mi SSE 6.9 mph - N/A   Clear
8:51 PM 44.1 °F 39.5 °F 21.9 °F 42% 30.51 in 10.0 mi SSE 8.1 mph - N/A   Clear
9:51 PM 45.0 °F 41.2 °F 21.0 °F 39% 30.51 in 10.0 mi SSE 6.9 mph - N/A   Clear
10:51 PM 44.1 °F 38.6 °F 19.9 °F 38% 30.51 in 10.0 mi South 10.4 mph - N/A   Clear
11:51 PM 43.0 °F 38.2 °F 19.0 °F 38% 30.49 in 10.0 mi South 8.1 mph - N/A   Clear